Atlantic, IA

10:24 PM CST on December 08, 2016 (GMT -0600)
Atlantic Municipal

Weather History for KAIO - October, 2011

Change the Weather History Date:

Monday, October 3, 2011

  Actual Average Record
Temperature  
Mean Temperature 60 °F -  
Max Temperature 82 °F 68 °F 95 °F (1997)
Min Temperature 37 °F 43 °F 30 °F (1999)
Degree Days  
Heating Degree Days 6    
Growing Degree Days 10 (Base 50)    
Moisture  
Dew Point 33 °F    
Average Humidity 50    
Maximum Humidity 87    
Minimum Humidity 9    
Precipitation  
Precipitation 0.00 in - - ()
Sea Level Pressure  
Sea Level Pressure 30.20 in    
Wind  
Wind Speed 3 mph (SSE)    
Max Wind Speed 14 mph    
Max Gust Speed 18 mph    
Visibility 10 miles    
Events      
Averages and records for this station are not official NWS values.
T = Trace of Precipitation, MM = Missing Value Source: NWS Daily Summary

Daily Weather History Graph

Daily Weather History Graph

Search for Another Location

Airport or City:

Trip Planner

Search our weather history database for the weather conditions in past years. The results will help you decide how hot, cold, wet, or windy it might be!

Date:

Astronomy

Oct. 03, 2011 Rise Set
Actual Time 7:18 AM CDT 6:59 PM CDT
Civil Twilight 6:51 AM CDT 7:26 PM CDT
Nautical Twilight 6:19 AM CDT 7:58 PM CDT
Astronomical Twilight 5:46 AM CDT 8:30 PM CDT
Moon 2:21 PM CDT (10/3) 11:59 PM CDT (10/3)
Length of Visible Light 12h 35m
Length of Day
11h 40m
Waxing Crescent, 45% of the Moon is Illuminated
Oct 3
Waxing Crescent
Oct 3
First Quarter
Oct 11
Full
Oct 19
Last Quarter
Oct 26
New

Hourly Weather History & Observations

Time (CDT) Temp. Windchill Dew Point Humidity Pressure Visibility Wind Dir Wind Speed Gust Speed Precip Events Conditions
12:15 AM 44.6 °F - 37.4 °F 76% 30.20 in 10.0 mi Calm Calm - N/A   Clear
12:35 AM 42.8 °F - 37.4 °F 81% 30.20 in 10.0 mi Calm Calm - N/A   Clear
12:55 AM 42.8 °F 41.1 °F 37.4 °F 81% 30.20 in 10.0 mi North 3.5 mph - N/A   Clear
1:15 AM 42.8 °F 41.1 °F 35.6 °F 76% 30.20 in 10.0 mi North 3.5 mph - N/A   Clear
1:35 AM 42.8 °F 41.1 °F 35.6 °F 76% 30.20 in 10.0 mi North 3.5 mph - N/A   Clear
1:55 AM 41.0 °F 39.0 °F 35.6 °F 81% 30.20 in 10.0 mi North 3.5 mph - N/A   Clear
2:15 AM 42.8 °F - 35.6 °F 76% 30.21 in 10.0 mi Calm Calm - N/A   Clear
2:55 AM 39.2 °F - 33.8 °F 81% 30.21 in 10.0 mi Calm Calm - N/A   Clear
3:15 AM 39.2 °F - 33.8 °F 81% 30.21 in 10.0 mi Calm Calm - N/A   Clear
3:35 AM 39.2 °F - 33.8 °F 81% 30.21 in 10.0 mi Calm Calm - N/A   Clear
3:55 AM 39.2 °F - 33.8 °F 81% 30.21 in 10.0 mi Calm Calm - N/A   Clear
4:15 AM 39.2 °F - 33.8 °F 81% 30.21 in 10.0 mi Calm Calm - N/A   Clear
4:35 AM 37.4 °F - 33.8 °F 87% 30.21 in 10.0 mi Calm Calm - N/A   Clear
4:55 AM 37.4 °F - 33.8 °F 87% 30.21 in 10.0 mi Calm Calm - N/A   Clear
5:15 AM 37.4 °F - 32.0 °F 81% 30.21 in 10.0 mi Calm Calm - N/A   Clear
5:35 AM 37.4 °F - 33.8 °F 87% 30.21 in 10.0 mi Calm Calm - N/A   Clear
5:55 AM 37.4 °F - 32.0 °F 81% 30.21 in 10.0 mi Calm Calm - N/A   Clear
6:15 AM 37.4 °F - 33.8 °F 87% 30.21 in 10.0 mi Calm Calm - N/A   Clear
6:35 AM 37.4 °F - 30.2 °F 75% 30.21 in 10.0 mi Calm Calm - N/A   Clear
6:55 AM 37.4 °F - 32.0 °F 81% 30.22 in 10.0 mi Calm Calm - N/A   Clear
7:15 AM 37.4 °F - 32.0 °F 81% 30.22 in 10.0 mi Calm Calm - N/A   Clear
7:35 AM 37.4 °F - 32.0 °F 81% 30.22 in 10.0 mi Calm Calm - N/A   Clear
7:55 AM 39.2 °F - 33.8 °F 81% 30.22 in 10.0 mi Calm Calm - N/A   Clear
8:15 AM 41.0 °F - 35.6 °F 81% 30.22 in 10.0 mi Calm Calm - N/A   Clear
8:35 AM 44.6 °F - 37.4 °F 76% 30.23 in 10.0 mi Calm Calm - N/A   Clear
8:55 AM 48.2 °F - 41.0 °F 76% 30.23 in 10.0 mi Calm Calm - N/A   Clear
9:35 AM 57.2 °F - 44.6 °F 63% 30.23 in 10.0 mi Calm Calm - N/A   Clear
9:55 AM 62.6 °F - 44.6 °F 52% 30.24 in 10.0 mi SSE 3.5 mph - N/A   Clear
10:35 AM 69.8 °F - 41.0 °F 35% 30.24 in 10.0 mi SSE 5.8 mph - N/A   Clear
10:55 AM 71.6 °F - 39.2 °F 31% 30.24 in 10.0 mi South 9.2 mph - N/A   Clear
11:15 AM 73.4 °F - 39.2 °F 29% 30.23 in 10.0 mi South 9.2 mph - N/A   Clear
11:35 AM 73.4 °F - 37.4 °F 27% 30.23 in 10.0 mi South 11.5 mph 16.1 mph N/A   Clear
11:55 AM 75.2 °F - 37.4 °F 25% 30.22 in 10.0 mi SSW 13.8 mph - N/A   Clear
12:15 PM 77.0 °F - 37.4 °F 24% 30.22 in 10.0 mi SSW 9.2 mph - N/A   Clear
12:35 PM 78.8 °F - 30.2 °F 17% 30.22 in 10.0 mi South 12.7 mph - N/A   Clear
12:55 PM 78.8 °F - 28.4 °F 16% 30.21 in 10.0 mi South 10.4 mph 16.1 mph N/A   Clear
1:15 PM 78.8 °F - 26.6 °F 15% 30.20 in 10.0 mi South 11.5 mph - N/A   Clear
1:35 PM 80.6 °F - 19.4 °F 10% 30.19 in 10.0 mi SSE 12.7 mph 18.4 mph N/A   Clear
1:55 PM 80.6 °F - 19.4 °F 10% 30.18 in 10.0 mi SSE 10.4 mph 17.3 mph N/A   Clear
2:15 PM 80.6 °F - 19.4 °F 10% 30.17 in 10.0 mi SE 8.1 mph 16.1 mph N/A   Clear
2:35 PM 80.6 °F - 19.4 °F 10% 30.17 in 10.0 mi SSE 10.4 mph - N/A   Clear
3:15 PM 82.4 °F - 17.6 °F 9% 30.16 in 10.0 mi South 9.2 mph - N/A   Clear
3:35 PM 82.4 °F - 17.6 °F 9% 30.15 in 10.0 mi SSE 9.2 mph 16.1 mph N/A   Clear
3:55 PM 82.4 °F - 17.6 °F 9% 30.15 in 10.0 mi SE 9.2 mph - N/A   Clear
4:15 PM 82.4 °F - 21.2 °F 10% 30.15 in 10.0 mi SE 10.4 mph - N/A   Clear
4:35 PM 82.4 °F - 21.2 °F 10% 30.14 in 10.0 mi SSE 9.2 mph - N/A   Clear
5:15 PM 80.6 °F - 23.0 °F 12% 30.15 in 10.0 mi SSE 8.1 mph - N/A   Clear
5:35 PM 80.6 °F - 24.8 °F 13% 30.15 in 10.0 mi SSE 8.1 mph - N/A   Clear
5:55 PM 78.8 °F - 26.6 °F 15% 30.15 in 10.0 mi SSE 8.1 mph - N/A   Clear
6:15 PM 78.8 °F - 30.2 °F 17% 30.15 in 10.0 mi SE 4.6 mph - N/A   Clear
6:35 PM 75.2 °F - 30.2 °F 19% 30.15 in 10.0 mi SE 4.6 mph - N/A   Clear
6:55 PM 73.4 °F - 33.8 °F 23% 30.15 in 10.0 mi SE 4.6 mph - N/A   Clear
7:35 PM 69.8 °F - 35.6 °F 28% 30.16 in 10.0 mi Calm Calm - N/A   Clear
7:55 PM 66.2 °F - 39.2 °F 37% 30.16 in 10.0 mi Calm Calm - N/A   Clear
8:35 PM 60.8 °F - 42.8 °F 52% 30.17 in 10.0 mi Calm Calm - N/A   Clear
8:55 PM 60.8 °F - 42.8 °F 52% 30.17 in 10.0 mi Calm Calm - N/A   Clear
9:15 PM 60.8 °F - 42.8 °F 52% 30.18 in 10.0 mi Calm Calm - N/A   Clear
9:35 PM 57.2 °F - 41.0 °F 55% 30.18 in 10.0 mi Calm Calm - N/A   Clear
9:55 PM 55.4 °F - 41.0 °F 58% 30.18 in 10.0 mi Calm Calm - N/A   Clear
10:15 PM 53.6 °F - 41.0 °F 62% 30.18 in 10.0 mi Calm Calm - N/A   Clear
10:35 PM 55.4 °F - 39.2 °F 54% 30.18 in 10.0 mi Calm Calm - N/A   Clear
10:55 PM 53.6 °F - 39.2 °F 58% 30.18 in 10.0 mi Calm Calm - N/A   Clear
11:15 PM 55.4 °F - 39.2 °F 54% 30.18 in 10.0 mi Calm Calm - N/A   Clear
11:35 PM 53.6 °F - 39.2 °F 58% 30.18 in 10.0 mi Calm Calm - N/A   Clear
11:55 PM 55.4 °F - 39.2 °F 54% 30.18 in 10.0 mi Calm Calm - N/A   Clear